Time,TemperatureF,DewpointF,PressureIn,WindDirection,WindDirectionDegrees,WindSpeedMPH,WindSpeedGustMPH,Humidity,HourlyPrecipIn,Conditions,Clouds,dailyrainin,SolarRadiationWatts/m^2,SoftwareType,DateUTC
2013-03-31 00:23:00,28.0,27.0,-100.00,SE,131,1.0,2.0,97,0.00,,,0.00,1.000000,,2013-03-31 04:23:00,
2013-03-31 00:33:00,28.0,27.0,-100.00,SE,131,1.0,2.0,97,0.00,,,0.00,1.000000,,2013-03-31 04:33:00,
2013-03-31 00:42:00,28.0,27.0,-100.00,SE,131,1.0,2.0,97,0.00,,,0.00,1.000000,,2013-03-31 04:42:00,
2013-03-31 00:52:00,28.0,27.0,-100.00,SE,131,1.0,2.0,97,0.00,,,0.00,1.000000,,2013-03-31 04:52:00,
2013-03-31 01:22:00,30.0,29.0,-100.00,SW,228,2.0,5.0,97,0.00,,,0.00,1.000000,,2013-03-31 05:22:00,
2013-03-31 01:32:00,30.0,29.0,-100.00,SW,228,2.0,5.0,97,0.00,,,0.00,1.000000,,2013-03-31 05:32:00,
2013-03-31 01:42:00,30.0,29.0,-100.00,SW,228,2.0,5.0,97,0.00,,,0.00,1.000000,,2013-03-31 05:42:00,
2013-03-31 01:52:00,30.0,29.0,-100.00,SW,228,2.0,5.0,97,0.00,,,0.00,1.000000,,2013-03-31 05:52:00,
2013-03-31 02:22:00,30.0,29.0,-100.00,SE,146,1.0,8.0,98,0.00,,,0.00,1.000000,,2013-03-31 06:22:00,
2013-03-31 02:32:00,30.0,29.0,-100.00,SE,146,1.0,8.0,98,0.00,,,0.00,1.000000,,2013-03-31 06:32:00,
2013-03-31 02:42:00,30.0,29.0,-100.00,SE,146,1.0,8.0,98,0.00,,,0.00,1.000000,,2013-03-31 06:42:00,
2013-03-31 02:52:00,30.0,29.0,-100.00,SE,146,1.0,8.0,98,0.00,,,0.00,1.000000,,2013-03-31 06:52:00,
2013-03-31 03:22:00,30.0,29.0,-100.00,SSW,210,2.0,6.0,98,0.00,,,0.00,1.000000,,2013-03-31 07:22:00,
2013-03-31 03:33:00,30.0,29.0,-100.00,SSW,210,2.0,6.0,98,0.00,,,0.00,1.000000,,2013-03-31 07:33:00,
2013-03-31 03:42:00,30.0,29.0,-100.00,SSW,210,2.0,6.0,98,0.00,,,0.00,1.000000,,2013-03-31 07:42:00,
2013-03-31 03:52:00,30.0,29.0,-100.00,SSW,210,2.0,6.0,98,0.00,,,0.00,1.000000,,2013-03-31 07:52:00,
2013-03-31 04:22:00,27.0,26.0,-100.00,North,351,0.0,3.0,97,0.00,,,0.00,1.000000,,2013-03-31 08:22:00,
2013-03-31 04:32:00,27.0,26.0,-100.00,North,351,0.0,3.0,97,0.00,,,0.00,1.000000,,2013-03-31 08:32:00,
2013-03-31 04:42:00,27.0,26.0,-100.00,North,351,0.0,3.0,97,0.00,,,0.00,1.000000,,2013-03-31 08:42:00,
2013-03-31 04:52:00,27.0,26.0,-100.00,North,351,0.0,3.0,97,0.00,,,0.00,1.000000,,2013-03-31 08:52:00,
2013-03-31 05:22:00,27.0,26.0,-100.00,NNW,344,0.0,2.0,97,0.00,,,0.00,1.000000,,2013-03-31 09:22:00,
2013-03-31 05:33:00,27.0,26.0,-100.00,NNW,344,0.0,2.0,97,0.00,,,0.00,1.000000,,2013-03-31 09:33:00,
2013-03-31 05:42:00,27.0,26.0,-100.00,NNW,344,0.0,2.0,97,0.00,,,0.00,1.000000,,2013-03-31 09:42:00,
2013-03-31 05:53:00,27.0,26.0,-100.00,NNW,344,0.0,2.0,97,0.00,,,0.00,1.000000,,2013-03-31 09:53:00,
2013-03-31 06:24:00,25.0,24.0,-100.00,North,349,0.0,0.0,96,0.00,,,0.00,1.000000,,2013-03-31 10:24:00,
2013-03-31 06:32:00,25.0,24.0,-100.00,North,349,0.0,0.0,96,0.00,,,0.00,1.000000,,2013-03-31 10:32:00,
2013-03-31 06:42:00,25.0,24.0,-100.00,North,349,0.0,0.0,96,0.00,,,0.00,1.000000,,2013-03-31 10:42:00,
2013-03-31 06:52:00,25.0,24.0,-100.00,North,349,0.0,0.0,96,0.00,,,0.00,1.000000,,2013-03-31 10:52:00,
2013-03-31 07:23:00,23.0,22.0,-100.00,North,350,1.0,2.0,94,0.00,,,0.00,1.000000,,2013-03-31 11:23:00,
2013-03-31 07:32:00,23.0,22.0,-100.00,North,350,1.0,2.0,94,0.00,,,0.00,1.000000,,2013-03-31 11:32:00,
2013-03-31 07:42:00,23.0,22.0,-100.00,North,350,1.0,2.0,94,0.00,,,0.00,1.000000,,2013-03-31 11:42:00,
2013-03-31 07:52:00,23.0,22.0,-100.00,North,350,1.0,2.0,94,0.00,,,0.00,1.000000,,2013-03-31 11:52:00,
2013-03-31 08:22:00,23.0,22.0,-100.00,NNW,334,1.0,3.0,94,0.00,,,0.00,3.000000,,2013-03-31 12:22:00,
2013-03-31 08:33:00,23.0,22.0,-100.00,NNW,334,1.0,3.0,94,0.00,,,0.00,3.000000,,2013-03-31 12:33:00,
2013-03-31 08:42:00,23.0,22.0,-100.00,NNW,334,1.0,3.0,94,0.00,,,0.00,3.000000,,2013-03-31 12:42:00,
2013-03-31 08:52:00,23.0,22.0,-100.00,NNW,334,1.0,3.0,94,0.00,,,0.00,3.000000,,2013-03-31 12:52:00,
2013-03-31 09:22:00,29.0,27.0,-100.00,WNW,292,3.0,6.0,93,0.00,,,0.00,50.000000,,2013-03-31 13:22:00,
2013-03-31 09:32:00,29.0,27.0,-100.00,WNW,292,3.0,6.0,93,0.00,,,0.00,50.000000,,2013-03-31 13:32:00,
2013-03-31 09:42:00,29.0,27.0,-100.00,WNW,292,3.0,6.0,93,0.00,,,0.00,50.000000,,2013-03-31 13:42:00,
2013-03-31 09:52:00,29.0,27.0,-100.00,WNW,292,3.0,6.0,93,0.00,,,0.00,50.000000,,2013-03-31 13:52:00,
2013-03-31 10:22:00,34.0,32.0,-100.00,WSW,256,4.0,7.0,93,0.00,,,0.00,156.000000,,2013-03-31 14:22:00,
2013-03-31 10:32:00,34.0,32.0,-100.00,WSW,256,4.0,7.0,93,0.00,,,0.00,156.000000,,2013-03-31 14:32:00,
2013-03-31 10:42:00,34.0,32.0,-100.00,WSW,256,4.0,7.0,93,0.00,,,0.00,156.000000,,2013-03-31 14:42:00,
2013-03-31 10:52:00,34.0,32.0,-100.00,WSW,256,4.0,7.0,93,0.00,,,0.00,156.000000,,2013-03-31 14:52:00,
2013-03-31 11:22:00,34.0,30.0,-100.00,WNW,286,7.0,17.0,86,0.00,,,0.00,164.000000,,2013-03-31 15:22:00,
2013-03-31 11:33:00,34.0,30.0,-100.00,WNW,286,7.0,17.0,86,0.00,,,0.00,164.000000,,2013-03-31 15:33:00,
2013-03-31 11:43:00,34.0,30.0,-100.00,WNW,286,7.0,17.0,86,0.00,,,0.00,164.000000,,2013-03-31 15:43:00,
2013-03-31 11:53:00,34.0,30.0,-100.00,WNW,286,7.0,17.0,86,0.00,,,0.00,164.000000,,2013-03-31 15:53:00,
2013-03-31 12:23:00,37.0,27.0,-100.00,WNW,287,7.0,18.0,68,0.00,,,0.00,324.000000,,2013-03-31 16:23:00,
2013-03-31 12:33:00,37.0,27.0,-100.00,WNW,287,7.0,18.0,68,0.00,,,0.00,324.000000,,2013-03-31 16:33:00,
2013-03-31 12:43:00,37.0,27.0,-100.00,WNW,287,7.0,18.0,68,0.00,,,0.00,324.000000,,2013-03-31 16:43:00,
2013-03-31 12:53:00,37.0,27.0,-100.00,WNW,287,7.0,18.0,68,0.00,,,0.00,324.000000,,2013-03-31 16:53:00,
2013-03-31 13:23:00,35.0,22.0,-100.00,WNW,300,8.0,24.0,58,0.00,,,0.00,231.000000,,2013-03-31 17:23:00,
2013-03-31 13:32:00,35.0,22.0,-100.00,WNW,300,8.0,24.0,58,0.00,,,0.00,231.000000,,2013-03-31 17:32:00,
2013-03-31 13:43:00,35.0,22.0,-100.00,WNW,300,8.0,24.0,58,0.00,,,0.00,231.000000,,2013-03-31 17:43:00,
2013-03-31 13:52:00,35.0,22.0,-100.00,WNW,300,8.0,24.0,58,0.00,,,0.00,231.000000,,2013-03-31 17:52:00,
2013-03-31 14:22:00,34.0,19.0,-100.00,WNW,293,8.0,21.0,53,0.00,,,0.00,371.000000,,2013-03-31 18:22:00,
2013-03-31 14:32:00,34.0,19.0,-100.00,WNW,293,8.0,21.0,53,0.00,,,0.00,371.000000,,2013-03-31 18:32:00,
2013-03-31 14:42:00,34.0,19.0,-100.00,WNW,293,8.0,21.0,53,0.00,,,0.00,371.000000,,2013-03-31 18:42:00,
2013-03-31 14:52:00,34.0,19.0,-100.00,WNW,293,8.0,21.0,53,0.00,,,0.00,371.000000,,2013-03-31 18:52:00,
2013-03-31 15:22:00,35.0,18.0,-100.00,NW,304,11.0,26.0,50,0.00,,,0.00,394.000000,,2013-03-31 19:22:00,
2013-03-31 15:33:00,35.0,18.0,-100.00,NW,304,11.0,26.0,50,0.00,,,0.00,394.000000,,2013-03-31 19:33:00,
2013-03-31 15:42:00,35.0,18.0,-100.00,NW,304,11.0,26.0,50,0.00,,,0.00,394.000000,,2013-03-31 19:42:00,
2013-03-31 15:53:00,35.0,18.0,-100.00,NW,304,11.0,26.0,50,0.00,,,0.00,394.000000,,2013-03-31 19:53:00,
2013-03-31 16:23:00,30.0,17.0,-100.00,NW,314,10.0,22.0,59,0.00,,,0.00,295.000000,,2013-03-31 20:23:00,
2013-03-31 16:33:00,30.0,17.0,-100.00,NW,314,10.0,22.0,59,0.00,,,0.00,295.000000,,2013-03-31 20:33:00,
2013-03-31 16:43:00,30.0,17.0,-100.00,NW,314,10.0,22.0,59,0.00,,,0.00,295.000000,,2013-03-31 20:43:00,
2013-03-31 16:52:00,30.0,17.0,-100.00,NW,314,10.0,22.0,59,0.00,,,0.00,295.000000,,2013-03-31 20:52:00,
2013-03-31 17:22:00,29.0,14.0,-100.00,NW,313,10.0,23.0,54,0.00,,,0.00,265.000000,,2013-03-31 21:22:00,
2013-03-31 17:34:00,29.0,14.0,-100.00,NW,313,10.0,23.0,54,0.00,,,0.00,265.000000,,2013-03-31 21:34:00,
2013-03-31 17:43:00,29.0,14.0,-100.00,NW,313,10.0,23.0,54,0.00,,,0.00,265.000000,,2013-03-31 21:43:00,
2013-03-31 17:53:00,29.0,14.0,-100.00,NW,313,10.0,23.0,54,0.00,,,0.00,265.000000,,2013-03-31 21:53:00,
2013-03-31 18:23:00,28.0,16.0,-100.00,NNW,330,7.0,20.0,61,0.00,,,0.00,88.000000,,2013-03-31 22:23:00,
2013-03-31 18:33:00,28.0,16.0,-100.00,NNW,330,7.0,20.0,61,0.00,,,0.00,88.000000,,2013-03-31 22:33:00,
2013-03-31 18:42:00,28.0,16.0,-100.00,NNW,330,7.0,20.0,61,0.00,,,0.00,88.000000,,2013-03-31 22:42:00,
2013-03-31 18:53:00,28.0,16.0,-100.00,NNW,330,7.0,20.0,61,0.00,,,0.00,88.000000,,2013-03-31 22:53:00,
2013-03-31 19:22:00,28.0,18.0,-100.00,NNW,331,7.0,16.0,65,0.00,,,0.00,97.000000,,2013-03-31 23:22:00,
2013-03-31 19:32:00,28.0,18.0,-100.00,NNW,331,7.0,16.0,65,0.00,,,0.00,97.000000,,2013-03-31 23:32:00,
2013-03-31 19:42:00,28.0,18.0,-100.00,NNW,331,7.0,16.0,65,0.00,,,0.00,97.000000,,2013-03-31 23:42:00,
2013-03-31 19:53:00,28.0,18.0,-100.00,NNW,331,7.0,16.0,65,0.00,,,0.00,97.000000,,2013-03-31 23:53:00,
2013-03-31 20:22:00,26.0,19.0,-100.00,NNW,328,6.0,16.0,76,0.00,,,0.00,38.000000,,2013-04-01 00:22:00,
2013-03-31 20:32:00,26.0,19.0,-100.00,NNW,328,6.0,16.0,76,0.00,,,0.00,38.000000,,2013-04-01 00:32:00,
2013-03-31 20:42:00,26.0,19.0,-100.00,NNW,328,6.0,16.0,76,0.00,,,0.00,38.000000,,2013-04-01 00:42:00,
2013-03-31 20:52:00,26.0,19.0,-100.00,NNW,328,6.0,16.0,76,0.00,,,0.00,38.000000,,2013-04-01 00:52:00,
2013-03-31 21:22:00,26.0,11.0,-100.00,NNW,332,6.0,15.0,53,0.00,,,0.00,6.000000,,2013-04-01 01:22:00,
2013-03-31 21:32:00,26.0,11.0,-100.00,NNW,332,6.0,15.0,53,0.00,,,0.00,6.000000,,2013-04-01 01:32:00,
2013-03-31 21:42:00,26.0,11.0,-100.00,NNW,332,6.0,15.0,53,0.00,,,0.00,6.000000,,2013-04-01 01:42:00,
2013-03-31 21:52:00,26.0,11.0,-100.00,NNW,332,6.0,15.0,53,0.00,,,0.00,6.000000,,2013-04-01 01:52:00,
2013-03-31 22:22:00,24.0,15.0,-100.00,NNW,347,7.0,17.0,68,0.00,,,0.00,1.000000,,2013-04-01 02:22:00,
2013-03-31 22:33:00,24.0,15.0,-100.00,NNW,347,7.0,17.0,68,0.00,,,0.00,1.000000,,2013-04-01 02:33:00,
2013-03-31 22:42:00,24.0,15.0,-100.00,NNW,347,7.0,17.0,68,0.00,,,0.00,1.000000,,2013-04-01 02:42:00,
2013-03-31 22:52:00,24.0,15.0,-100.00,NNW,347,7.0,17.0,68,0.00,,,0.00,1.000000,,2013-04-01 02:52:00,
2013-03-31 23:22:00,21.0,16.0,-100.00,NNW,340,7.0,19.0,82,0.00,,,0.00,1.000000,,2013-04-01 03:22:00,
2013-03-31 23:34:00,21.0,16.0,-100.00,NNW,340,7.0,19.0,82,0.00,,,0.00,1.000000,,2013-04-01 03:34:00,
2013-03-31 23:43:00,21.0,16.0,-100.00,NNW,340,7.0,19.0,82,0.00,,,0.00,1.000000,,2013-04-01 03:43:00,
2013-03-31 23:53:00,21.0,16.0,-100.00,NNW,340,7.0,19.0,82,0.00,,,0.00,1.000000,,2013-04-01 03:53:00,